Location: Trebic
(49.2170°N, 15.8830°E)
Time: 12:00:54
(UTC+02:00)

Explorer 11/Cluster Stage 4 - All Passes

Search period start: 16 July 2019 00:00
Search period end: 26 July 2019 00:00
Orbit: 467 x 1260 km, 28.8° (Epoch: 15 July)

Date Brightness Start Highest point End Pass type
(mag) Time Alt. Az. Time Alt. Az. Time Alt. Az.
16 Jul - 05:28:21 10° SSW 05:32:47 16° S 05:37:10 10° SE daylight
16 Jul - 07:16:22 10° SW 07:20:32 15° S 07:24:34 10° SSE daylight
17 Jul - 03:33:03 10° SSE 03:34:10 10° SSE 03:35:18 10° SSE visible
17 Jul - 05:17:15 10° SSW 05:21:49 16° S 05:26:23 10° SE daylight
17 Jul - 07:05:28 10° SW 07:09:34 15° SSW 07:13:33 10° SSE daylight
18 Jul - 03:21:09 10° S 03:23:11 11° SSE 03:25:16 10° SE visible
18 Jul - 05:06:13 10° SSW 05:10:50 16° S 05:15:29 10° SE daylight
18 Jul - 06:54:40 10° SW 06:58:35 14° SSW 07:02:27 10° SSE daylight
19 Jul - 03:09:43 10° S 03:12:12 12° SSE 03:14:46 10° SE visible
19 Jul - 04:55:17 10° SSW 04:59:52 16° S 05:04:32 10° SE daylight
19 Jul - 06:43:59 10° SW 06:47:36 14° SSW 06:51:12 10° SSE daylight
20 Jul - 02:58:31 10° S 03:01:15 12° SSE 03:04:04 10° SE visible
20 Jul - 04:44:26 10° SW 04:48:54 16° S 04:53:29 10° SE daylight
20 Jul - 06:33:26 10° SW 06:36:37 13° SSW 06:39:49 10° S daylight
21 Jul - 02:47:28 10° S 02:50:18 12° SSE 02:53:14 10° SE visible
21 Jul - 04:33:40 10° SW 04:37:56 16° S 04:42:21 10° SSE visible
21 Jul - 06:23:07 10° SW 06:25:38 12° SSW 06:28:10 10° S daylight
22 Jul - 02:36:33 10° S 02:39:21 13° SSE 02:42:18 10° SE visible
22 Jul - 04:23:00 10° SW 04:26:58 15° S 04:31:08 10° SSE visible
22 Jul - 06:13:19 10° SSW 06:14:40 10° SSW 06:16:00 10° S daylight
23 Jul - 02:25:46 10° S 02:28:27 12° SSE 02:31:15 10° SE visible
23 Jul - 04:12:26 10° SSW 04:16:02 14° S 04:19:50 10° SSE visible
24 Jul - 02:15:06 10° S 02:17:32 12° S 02:20:08 10° SSE visible
24 Jul - 04:02:00 10° SSW 04:05:07 13° S 04:08:24 10° SSE visible
25 Jul - 02:04:33 10° S 02:06:40 12° S 02:08:54 10° SSE visible
25 Jul - 03:51:46 10° SSW 03:54:13 12° S 03:56:46 10° SSE visible
